Dunkirk, NY

5:58 AM EDT on April 23, 2018 (GMT -0400)
Chautauqua County-Dunkirk

Weather History for KDKK - January, 2014

Change the Weather History Date:

Tuesday, January 28, 2014

  Actual Average Record
Temperature  
Mean Temperature 3 °F -  
Max Temperature 8 °F 32 °F 53 °F (1989)
Min Temperature -2 °F 18 °F -13 °F (2005)
Degree Days  
Heating Degree Days 62    
Moisture  
Dew Point -8 °F    
Average Humidity 60    
Maximum Humidity 69    
Minimum Humidity 52    
Precipitation  
Precipitation 0.00 in - - ()
Sea Level Pressure  
Sea Level Pressure 30.32 in    
Wind  
Wind Speed 12 mph (SW)    
Max Wind Speed 17 mph    
Max Gust Speed 28 mph    
Visibility 10 miles    
Events      
Averages and records for this station are not official NWS values.
T = Trace of Precipitation, MM = Missing Value Source: NWS Daily Summary

Daily Weather History Graph

Daily Weather History Graph

Search for Another Location

Airport or City:

Astronomy

Jan. 28, 2014 Rise Set
Actual Time 7:34 AM EST 5:25 PM EST
Civil Twilight 7:04 AM EST 5:55 PM EST
Nautical Twilight 6:30 AM EST 6:29 PM EST
Astronomical Twilight 5:57 AM EST 7:02 PM EST
Moon 5:15 AM EST (1/28) 3:13 PM EST (1/28)
Length of Visible Light 10h 51m
Length of Day
9h 50m
Waning Crescent, 7% of the Moon is Illuminated
Jan 28
Waning Crescent
Jan 30
New
Feb 6
First Quarter
Feb 14
Full
Feb 22
Last Quarter

Hourly Weather History & Observations

Time (EST) Temp. Windchill Dew Point Humidity Pressure Visibility Wind Dir Wind Speed Gust Speed Precip Events Conditions
12:53 AM 3.0 °F -14.1 °F -7.1 °F 63% 30.27 in 10.0 mi WSW 12.7 mph - N/A   Mostly Cloudy
1:53 AM 1.9 °F -15.5 °F -8.0 °F 63% 30.28 in 10.0 mi WSW 12.7 mph 27.6 mph N/A   Clear
2:53 AM 1.9 °F -15.5 °F -8.0 °F 63% 30.31 in 10.0 mi WSW 12.7 mph 21.9 mph N/A   Scattered Clouds
3:53 AM 1.0 °F -16.6 °F -9.9 °F 60% 30.32 in 10.0 mi WSW 12.7 mph 21.9 mph N/A   Clear
4:53 AM -0.0 °F -18.0 °F -9.9 °F 63% 30.34 in 10.0 mi WSW 12.7 mph - N/A   Clear
5:53 AM 1.0 °F -16.6 °F -9.0 °F 63% 30.34 in 10.0 mi WSW 12.7 mph - N/A   Mostly Cloudy
6:31 AM 1.4 °F -12.5 °F -9.4 °F 61% 30.29 in 10.0 mi SW 8.1 mph - N/A   Partly Cloudy
6:53 AM -0.9 °F -15.3 °F -9.9 °F 66% 30.35 in 10.0 mi SW 8.1 mph - N/A   Clear
7:53 AM -2.9 °F -19.8 °F -11.0 °F 68% 30.38 in 10.0 mi SSW 10.4 mph - N/A   Scattered Clouds
8:14 AM -2.2 °F -19.9 °F -11.2 °F 66% 30.33 in 10.0 mi SSW 11.5 mph - N/A   Mostly Cloudy
8:53 AM -2.0 °F -20.5 °F -9.9 °F 69% 30.38 in 10.0 mi SSW 12.7 mph - N/A   Scattered Clouds
9:53 AM 1.9 °F -18.1 °F -8.0 °F 63% 30.39 in 10.0 mi WSW 17.3 mph 20.7 mph N/A   Clear
10:53 AM 3.9 °F -15.0 °F -7.1 °F 60% 30.41 in 10.0 mi SW 16.1 mph 23.0 mph N/A   Scattered Clouds
11:10 AM 5.0 °F -10.8 °F -7.6 °F 56% 30.36 in 10.0 mi SW 11.5 mph - N/A   Mostly Cloudy
11:32 AM 3.2 °F -16.5 °F -7.6 °F 61% 30.36 in 10.0 mi WSW 17.3 mph 21.9 mph N/A   Scattered Clouds
11:53 AM 6.1 °F -9.5 °F -6.0 °F 58% 30.40 in 10.0 mi WSW 11.5 mph 24.2 mph N/A   Scattered Clouds
12:53 PM 6.1 °F -9.5 °F -6.0 °F 58% 30.36 in 10.0 mi WSW 11.5 mph - N/A   Scattered Clouds
1:42 PM 6.8 °F -11.3 °F -5.8 °F 56% 30.28 in 10.0 mi WSW 16.1 mph - N/A   Mostly Cloudy
1:53 PM 7.0 °F -11.0 °F -5.1 °F 58% 30.34 in 10.0 mi WSW 16.1 mph 23.0 mph N/A   Mostly Cloudy
2:53 PM 8.1 °F -9.0 °F -4.0 °F 58% 30.33 in 10.0 mi WSW 15.0 mph 21.9 mph N/A   Clear
3:53 PM 8.1 °F -5.3 °F -4.0 °F 58% 30.32 in 10.0 mi WSW 9.2 mph 18.4 mph N/A   Clear
4:53 PM 7.0 °F -7.5 °F -2.9 °F 64% 30.30 in 10.0 mi WSW 10.4 mph - N/A   Clear
5:53 PM 5.0 °F -6.9 °F -8.0 °F 55% 30.29 in 10.0 mi SSW 6.9 mph - N/A   Clear
6:53 PM 3.9 °F -10.4 °F -9.0 °F 55% 30.29 in 10.0 mi SSW 9.2 mph - N/A   Clear
7:53 PM 3.0 °F -12.5 °F -9.0 °F 57% 30.28 in 10.0 mi SSW 10.4 mph - N/A   Clear
8:53 PM 3.0 °F -14.1 °F -9.9 °F 55% 30.27 in 10.0 mi SSW 12.7 mph - N/A   Clear
9:53 PM 1.9 °F -13.8 °F -11.0 °F 55% 30.25 in 10.0 mi SSW 10.4 mph - N/A   Clear
10:53 PM 1.9 °F -12.9 °F -11.9 °F 52% 30.25 in 10.0 mi SSW 9.2 mph - N/A   Clear
11:53 PM 1.0 °F -15.8 °F -11.9 °F 55% 30.25 in 10.0 mi SSW 11.5 mph - N/A   Clear